,,,PA_Meas_PMT16A,,PR_Meas_QMR101_102,,RH_Meas_QMH101,,SR_Meas_QMS101,,TA_Meas_QMH101,,GenWind,,GenWind,
date,time,status,PA,status,PR,status,RH,status,SR,status,TA,status,DirAvg,status,SpdAvg,
2010-08-26, 00:00:04,VALID,1005.89,VALID,0,INVALID,115.44,VALID,0,VALID,23.838,VALID,2,VALID,0.554688,
2010-08-26, 00:01:04,VALID,1005.87,VALID,0,INVALID,115.478,VALID,0,VALID,23.8185,VALID,358,VALID,0.678125,
2010-08-26, 00:02:04,VALID,1005.86,VALID,0,INVALID,115.562,VALID,0.100563,VALID,23.7973,VALID,356,VALID,0.651953,
2010-08-26, 00:03:04,VALID,1005.83,VALID,0,INVALID,115.524,VALID,0,VALID,23.7991,VALID,359,VALID,0.586719,
2010-08-26, 00:04:04,VALID,1005.8,VALID,0,INVALID,115.471,VALID,0,VALID,23.7991,VALID,359,VALID,0.462109,
2010-08-26, 00:05:04,VALID,1005.8,VALID,0,INVALID,115.471,VALID,0,VALID,23.8185,VALID,359,VALID,0.340625,
2010-08-26, 00:06:04,VALID,1005.77,VALID,0,INVALID,115.455,VALID,0,VALID,23.8185,VALID,359,VALID,0.210938,
2010-08-26, 00:07:04,VALID,1005.76,VALID,0,INVALID,115.486,VALID,0.100563,VALID,23.7991,VALID,359,VALID,0.257031,
2010-08-26, 00:08:04,VALID,1005.78,VALID,0,INVALID,115.494,VALID,0.100563,VALID,23.7991,VALID,359,VALID,0,
2010-08-26, 00:09:04,VALID,1005.8,VALID,0,INVALID,115.501,VALID,0,VALID,23.7991,VALID,359,VALID,0.0753906,
2010-08-26, 00:10:04,VALID,1005.8,VALID,0,INVALID,115.57,VALID,0,VALID,23.7796,VALID,359,VALID,0.0246094,
2010-08-26, 00:11:04,VALID,1005.82,VALID,0,INVALID,115.578,VALID,0,VALID,23.7796,VALID,359,VALID,0.174609,
2010-08-26, 00:12:04,VALID,1005.82,VALID,0,INVALID,115.509,VALID,0,VALID,23.7991,VALID,359,VALID,0.391797,
2010-08-26, 00:13:04,VALID,1005.8,VALID,0,INVALID,115.463,VALID,0,VALID,23.7991,VALID,359,VALID,0.221094,
2010-08-26, 00:14:04,VALID,1005.79,VALID,0,INVALID,115.402,VALID,0.100563,VALID,23.8185,VALID,359,VALID,0.0550781,
2010-08-26, 00:15:04,VALID,1005.75,VALID,0,INVALID,115.349,VALID,0.100563,VALID,23.838,VALID,359,VALID,0,
2010-08-26, 00:16:04,VALID,1005.75,VALID,0,INVALID,115.303,VALID,0.100563,VALID,23.8575,VALID,359,VALID,0,
2010-08-26, 00:17:04,VALID,1005.71,VALID,0,INVALID,115.303,VALID,0,VALID,23.8575,VALID,359,VALID,0,
2010-08-26, 00:18:04,VALID,1005.69,VALID,0,INVALID,115.425,VALID,0,VALID,23.838,VALID,359,VALID,0,
2010-08-26, 00:19:04,VALID,1005.68,VALID,0,INVALID,115.547,VALID,0,VALID,23.7991,VALID,359,VALID,0,
2010-08-26, 00:20:04,VALID,1005.67,VALID,0,INVALID,115.677,VALID,0.100563,VALID,23.7796,VALID,359,VALID,0,
2010-08-26, 00:21:04,VALID,1005.68,VALID,0,INVALID,115.761,VALID,0.100563,VALID,23.7407,VALID,359,VALID,0,
2010-08-26, 00:22:04,VALID,1005.68,VALID,0,INVALID,115.822,VALID,0,VALID,23.6805,VALID,359,VALID,0,
2010-08-26, 00:23:04,VALID,1005.7,VALID,0,INVALID,115.867,VALID,0.100563,VALID,23.7017,VALID,359,VALID,0,
2010-08-26, 00:24:04,VALID,1005.69,VALID,0,INVALID,115.86,VALID,0,VALID,23.6805,VALID,359,VALID,0,
2010-08-26, 00:25:04,VALID,1005.7,VALID,0,INVALID,115.829,VALID,0,VALID,23.7017,VALID,359,VALID,0,
2010-08-26, 00:26:04,VALID,1005.65,VALID,0,INVALID,115.745,VALID,0,VALID,23.7619,VALID,359,VALID,0,
2010-08-26, 00:27:04,VALID,1005.65,VALID,0,INVALID,115.677,VALID,0,VALID,23.7601,VALID,359,VALID,0,
2010-08-26, 00:28:04,VALID,1005.65,VALID,0,INVALID,115.684,VALID,0,VALID,23.7619,VALID,359,VALID,0,
2010-08-26, 00:29:04,VALID,1005.6,VALID,0,INVALID,115.73,VALID,0,VALID,23.7407,VALID,359,VALID,0,
2010-08-26, 00:30:04,VALID,1005.59,VALID,0,INVALID,115.684,VALID,0.100563,VALID,23.7407,VALID,359,VALID,0,
2010-08-26, 00:31:04,VALID,1005.57,VALID,0,INVALID,115.669,VALID,0,VALID,23.7619,VALID,359,VALID,0,
2010-08-26, 00:32:04,VALID,1005.55,VALID,0,INVALID,115.616,VALID,0,VALID,23.7814,VALID,359,VALID,0,
2010-08-26, 00:33:04,VALID,1005.53,VALID,0,INVALID,115.654,VALID,0,VALID,23.7601,VALID,359,VALID,0,
2010-08-26, 00:34:04,VALID,1005.53,VALID,0,INVALID,115.631,VALID,0.100563,VALID,23.7407,VALID,359,VALID,0,
2010-08-26, 00:35:04,VALID,1005.52,VALID,0,INVALID,115.669,VALID,0,VALID,23.7601,VALID,359,VALID,0.0390625,
2010-08-26, 00:36:04,VALID,1005.5,VALID,0,INVALID,115.73,VALID,0.100563,VALID,23.7407,VALID,359,VALID,0,
2010-08-26, 00:37:04,VALID,1005.54,VALID,0,INVALID,115.768,VALID,0.100563,VALID,23.7212,VALID,359,VALID,0,
2010-08-26, 00:38:04,VALID,1005.52,VALID,0,INVALID,115.768,VALID,0,VALID,23.7017,VALID,359,VALID,0,
2010-08-26, 00:39:04,VALID,1005.52,VALID,0,INVALID,115.89,VALID,0,VALID,23.7035,VALID,359,VALID,0.309375,
2010-08-26, 00:40:04,VALID,1005.57,VALID,0,INVALID,115.86,VALID,0,VALID,23.6823,VALID,359,VALID,0.258984,
2010-08-26, 00:41:04,VALID,1005.52,VALID,0,INVALID,115.799,VALID,0,VALID,23.6823,VALID,359,VALID,0.342578,
2010-08-26, 00:42:04,VALID,1005.5,VALID,0,INVALID,115.837,VALID,0,VALID,23.6628,VALID,359,VALID,0.539844,
2010-08-26, 00:43:04,VALID,1005.48,VALID,0,INVALID,115.875,VALID,0,VALID,23.6434,VALID,359,VALID,0.726563,
2010-08-26, 00:44:04,VALID,1005.46,VALID,0,INVALID,115.852,VALID,0,VALID,23.6239,VALID,359,VALID,0.879687,
2010-08-26, 00:45:04,VALID,1005.45,VALID,0,INVALID,115.867,VALID,0,VALID,23.6239,VALID,358,VALID,0.667969,
2010-08-26, 00:46:04,VALID,1005.43,VALID,0,INVALID,115.928,VALID,0,VALID,23.6044,VALID,358,VALID,0.567969,
2010-08-26, 00:47:04,VALID,1005.42,VALID,0,INVALID,115.928,VALID,0,VALID,23.585,VALID,358,VALID,0.510156,
2010-08-26, 00:48:04,VALID,1005.44,VALID,0,INVALID,115.86,VALID,0.100563,VALID,23.5655,VALID,358,VALID,0.442578,
2010-08-26, 00:49:04,VALID,1005.43,VALID,0,INVALID,115.822,VALID,0,VALID,23.5637,VALID,358,VALID,0.251172,
2010-08-26, 00:50:04,VALID,1005.4,VALID,0,INVALID,115.715,VALID,0,VALID,23.585,VALID,358,VALID,0,
2010-08-26, 00:51:04,VALID,1005.39,VALID,0,INVALID,115.654,VALID,0,VALID,23.6044,VALID,358,VALID,0,
2010-08-26, 00:52:04,VALID,1005.39,VALID,0,INVALID,115.578,VALID,0,VALID,23.6026,VALID,358,VALID,0,
2010-08-26, 00:53:04,VALID,1005.39,VALID,0,INVALID,115.463,VALID,0,VALID,23.6434,VALID,358,VALID,0,
2010-08-26, 00:54:04,VALID,1005.38,VALID,0,INVALID,115.402,VALID,0.100563,VALID,23.6434,VALID,358,VALID,0,
2010-08-26, 00:55:04,VALID,1005.32,VALID,0,INVALID,115.341,VALID,0,VALID,23.6628,VALID,358,VALID,0,
2010-08-26, 00:56:04,VALID,1005.32,VALID,0,INVALID,115.28,VALID,0,VALID,23.6628,VALID,358,VALID,0,
2010-08-26, 00:57:04,VALID,1005.28,VALID,0,INVALID,115.28,VALID,0.100563,VALID,23.6628,VALID,358,VALID,0,
2010-08-26, 00:58:04,VALID,1005.26,VALID,0,INVALID,115.242,VALID,0,VALID,23.6628,VALID,358,VALID,0,
2010-08-26, 00:59:04,VALID,1005.21,VALID,0,INVALID,115.234,VALID,0,VALID,23.6628,VALID,358,VALID,0,
2010-08-26, 01:00:04,VALID,1005.19,VALID,0,INVALID,115.196,VALID,0.100563,VALID,23.6628,VALID,358,VALID,0,
2010-08-26, 01:01:04,VALID,1005.21,VALID,0,INVALID,115.219,VALID,0.100563,VALID,23.6434,VALID,358,VALID,0,
2010-08-26, 01:02:04,VALID,1005.16,VALID,0,INVALID,115.219,VALID,0.100563,VALID,23.6434,VALID,358,VALID,0,
2010-08-26, 01:03:04,VALID,1005.13,VALID,0,INVALID,115.196,VALID,0.100563,VALID,23.6434,VALID,358,VALID,0,
2010-08-26, 01:04:04,VALID,1005.12,VALID,0,INVALID,115.204,VALID,0.100563,VALID,23.6434,VALID,358,VALID,0,
2010-08-26, 01:05:04,VALID,1005.12,VALID,0,INVALID,115.257,VALID,0,VALID,23.6239,VALID,358,VALID,0,
2010-08-26, 01:06:04,VALID,1005.15,VALID,0,INVALID,115.158,VALID,0,VALID,23.6239,VALID,358,VALID,0,
2010-08-26, 01:07:04,VALID,1005.15,VALID,0,INVALID,115.044,VALID,0,VALID,23.6434,VALID,358,VALID,0,
2010-08-26, 01:08:04,VALID,1005.14,VALID,0,INVALID,115.112,VALID,0,VALID,23.6239,VALID,358,VALID,0,
2010-08-26, 01:09:04,VALID,1005.13,VALID,0,INVALID,115.082,VALID,0,VALID,23.6044,VALID,358,VALID,0,
2010-08-26, 01:10:04,VALID,1005.16,VALID,0,INVALID,115.059,VALID,0,VALID,23.6239,VALID,358,VALID,0,
2010-08-26, 01:11:04,VALID,1005.16,VALID,0,INVALID,115.044,VALID,0,VALID,23.6434,VALID,358,VALID,0,
2010-08-26, 01:12:04,VALID,1005.15,VALID,0,INVALID,115.066,VALID,0,VALID,23.6239,VALID,358,VALID,0,
2010-08-26, 01:13:04,VALID,1005.15,VALID,0,INVALID,115.089,VALID,0,VALID,23.6239,VALID,358,VALID,0,
2010-08-26, 01:14:04,VALID,1005.17,VALID,0,INVALID,115.013,VALID,0,VALID,23.6239,VALID,358,VALID,0,
2010-08-26, 01:15:04,VALID,1005.14,VALID,0,INVALID,115.028,VALID,0,VALID,23.6452,VALID,358,VALID,0,
2010-08-26, 01:16:04,VALID,1005.14,VALID,0,INVALID,115.021,VALID,0,VALID,23.6434,VALID,358,VALID,0,
2010-08-26, 01:17:04,VALID,1005.13,VALID,0,INVALID,115.028,VALID,0.100563,VALID,23.6239,VALID,358,VALID,0,
2010-08-26, 01:18:04,VALID,1005.11,VALID,0,INVALID,115.021,VALID,0,VALID,23.6239,VALID,358,VALID,0,
2010-08-26, 01:19:04,VALID,1005.11,VALID,0,INVALID,114.952,VALID,0,VALID,23.6434,VALID,358,VALID,0,
2010-08-26, 01:20:04,VALID,1005.1,VALID,0,INVALID,114.982,VALID,0.100563,VALID,23.6434,VALID,358,VALID,0,
2010-08-26, 01:21:04,VALID,1005.11,VALID,0,INVALID,114.975,VALID,0.100563,VALID,23.6434,VALID,358,VALID,0,
2010-08-26, 01:22:04,VALID,1005.06,VALID,0,INVALID,115.013,VALID,0,VALID,23.6646,VALID,358,VALID,0,
2010-08-26, 01:23:04,VALID,1005.06,VALID,0,INVALID,115.074,VALID,0,VALID,23.6239,VALID,358,VALID,0,
2010-08-26, 01:24:04,VALID,1005.03,VALID,0,INVALID,115.074,VALID,0,VALID,23.6239,VALID,358,VALID,0,
2010-08-26, 01:25:04,VALID,1005.04,VALID,0,INVALID,115.044,VALID,0,VALID,23.6044,VALID,358,VALID,0,
2010-08-26, 01:26:04,VALID,1004.99,VALID,0,INVALID,115.112,VALID,0,VALID,23.6044,VALID,358,VALID,0,
2010-08-26, 01:27:04,VALID,1004.96,VALID,0,INVALID,115.181,VALID,0,VALID,23.585,VALID,358,VALID,0,
2010-08-26, 01:28:04,VALID,1004.96,VALID,0,INVALID,115.173,VALID,0,VALID,23.5637,VALID,358,VALID,0,
2010-08-26, 01:29:04,VALID,1004.93,VALID,0,INVALID,115.158,VALID,0,VALID,23.546,VALID,358,VALID,0.570313,
2010-08-26, 01:30:04,VALID,1004.93,VALID,0,INVALID,115.173,VALID,0,VALID,23.546,VALID,359,VALID,0.648438,
2010-08-26, 01:31:04,VALID,1004.92,VALID,0,INVALID,115.219,VALID,0,VALID,23.5478,VALID,359,VALID,0.636328,
2010-08-26, 01:32:04,VALID,1004.92,VALID,0,INVALID,115.173,VALID,0,VALID,23.5478,VALID,359,VALID,0.690625,
2010-08-26, 01:33:04,VALID,1004.91,VALID,0,INVALID,115.143,VALID,0,VALID,23.5266,VALID,359,VALID,0.533984,
2010-08-26, 01:34:04,VALID,1004.9,VALID,0,INVALID,115.135,VALID,0,VALID,23.5478,VALID,359,VALID,0.378516,
2010-08-26, 01:35:04,VALID,1004.93,VALID,0,INVALID,115.12,VALID,0,VALID,23.5266,VALID,359,VALID,0.125781,
2010-08-26, 01:36:04,VALID,1004.95,VALID,0,INVALID,115.12,VALID,0,VALID,23.5284,VALID,359,VALID,0,
2010-08-26, 01:37:04,VALID,1004.97,VALID,0,INVALID,115.15,VALID,0,VALID,23.5089,VALID,359,VALID,0,
2010-08-26, 01:38:04,VALID,1004.97,VALID,0,INVALID,115.15,VALID,0,VALID,23.5089,VALID,359,VALID,0,
2010-08-26, 01:39:04,VALID,1005.02,VALID,0,INVALID,115.135,VALID,0,VALID,23.4877,VALID,359,VALID,0,
2010-08-26, 01:40:04,VALID,1004.98,VALID,0,INVALID,115.074,VALID,0,VALID,23.4877,VALID,359,VALID,0,
2010-08-26, 01:41:04,VALID,1004.96,VALID,0,INVALID,115.021,VALID,0,VALID,23.5071,VALID,359,VALID,0.566406,
2010-08-26, 01:42:04,VALID,1004.93,VALID,0,INVALID,115.066,VALID,0,VALID,23.4877,VALID,359,VALID,0.854297,
2010-08-26, 01:43:04,VALID,1004.91,VALID,0,INVALID,115.051,VALID,0,VALID,23.5071,VALID,359,VALID,0.938672,
2010-08-26, 01:44:04,VALID,1004.9,VALID,0,INVALID,115.051,VALID,0,VALID,23.4682,VALID,359,VALID,0.840625,
2010-08-26, 01:45:04,VALID,1004.87,VALID,0,INVALID,115.021,VALID,0,VALID,23.4682,VALID,358,VALID,0.930859,
2010-08-26, 01:46:04,VALID,1004.87,VALID,0,INVALID,114.99,VALID,0,VALID,23.4682,VALID,358,VALID,0.802734,
2010-08-26, 01:47:04,VALID,1004.87,VALID,0,INVALID,114.876,VALID,0,VALID,23.4894,VALID,358,VALID,0.411328,
2010-08-26, 01:48:04,VALID,1004.88,VALID,0,INVALID,114.838,VALID,0,VALID,23.5089,VALID,358,VALID,0.191016,
2010-08-26, 01:49:04,VALID,1004.94,VALID,0,INVALID,114.822,VALID,0,VALID,23.4682,VALID,358,VALID,0,
2010-08-26, 01:50:04,VALID,1004.96,VALID,0,INVALID,114.784,VALID,0,VALID,23.5284,VALID,358,VALID,0,
2010-08-26, 01:51:04,VALID,1004.95,VALID,0,INVALID,114.754,VALID,0,VALID,23.5284,VALID,358,VALID,0,
2010-08-26, 01:52:04,VALID,1004.95,VALID,0,INVALID,114.754,VALID,0,VALID,23.5284,VALID,358,VALID,0,
2010-08-26, 01:53:04,VALID,1004.95,VALID,0,INVALID,114.738,VALID,0,VALID,23.5089,VALID,358,VALID,0,
2010-08-26, 01:54:04,VALID,1004.95,VALID,0,INVALID,114.647,VALID,0,VALID,23.5266,VALID,358,VALID,0.295312,
2010-08-26, 01:55:04,VALID,1004.94,VALID,0,INVALID,114.571,VALID,0,VALID,23.546,VALID,358,VALID,0.434766,
2010-08-26, 01:56:04,VALID,1004.93,VALID,0,INVALID,114.654,VALID,0,VALID,23.5266,VALID,358,VALID,0.548437,
2010-08-26, 01:57:04,VALID,1004.93,VALID,0,INVALID,114.639,VALID,0,VALID,23.5266,VALID,358,VALID,0.585156,
2010-08-26, 01:58:04,VALID,1004.93,VALID,0,INVALID,114.624,VALID,0,VALID,23.5478,VALID,358,VALID,0.53125,
2010-08-26, 01:59:04,VALID,1004.94,VALID,0,INVALID,114.677,VALID,0,VALID,23.5071,VALID,358,VALID,0.560547,
2010-08-26, 02:00:04,VALID,1004.93,VALID,0,INVALID,114.601,VALID,0,VALID,23.5071,VALID,358,VALID,0.589063,
2010-08-26, 02:01:04,VALID,1004.94,VALID,0,INVALID,114.426,VALID,0,VALID,23.546,VALID,358,VALID,0.523438,
2010-08-26, 02:02:04,VALID,1004.95,VALID,0,INVALID,114.334,VALID,0,VALID,23.5655,VALID,358,VALID,0.427734,
2010-08-26, 02:03:04,VALID,1004.95,VALID,0,INVALID,114.281,VALID,0,VALID,23.6044,VALID,358,VALID,0.521094,
2010-08-26, 02:04:04,VALID,1004.95,VALID,0,INVALID,114.044,VALID,0,VALID,23.6628,VALID,358,VALID,0.588672,
2010-08-26, 02:05:04,VALID,1004.95,VALID,0,INVALID,113.777,VALID,0,VALID,23.7601,VALID,351,VALID,0.785156,
2010-08-26, 02:06:04,VALID,1004.92,VALID,0,INVALID,113.708,VALID,0.100563,VALID,23.8185,VALID,350,VALID,0.436719,
2010-08-26, 02:07:04,VALID,1004.93,VALID,0,INVALID,113.693,VALID,0,VALID,23.838,VALID,350,VALID,0.533594,
2010-08-26, 02:08:04,VALID,1004.95,VALID,0,INVALID,113.785,VALID,0,VALID,23.8185,VALID,350,VALID,0.272266,
2010-08-26, 02:09:04,VALID,1004.92,VALID,0,INVALID,113.968,VALID,0,VALID,23.7796,VALID,350,VALID,0.412109,
2010-08-26, 02:10:04,VALID,1004.92,VALID,0,INVALID,114.143,VALID,0,VALID,23.7212,VALID,350,VALID,0.525,
2010-08-26, 02:11:04,VALID,1004.89,VALID,0,INVALID,114.204,VALID,0,VALID,23.723,VALID,350,VALID,0.661719,
2010-08-26, 02:12:04,VALID,1004.84,VALID,0,INVALID,114.281,VALID,0,VALID,23.6823,VALID,350,VALID,0.557031,
2010-08-26, 02:13:04,VALID,1004.83,VALID,0,INVALID,114.357,VALID,0.100563,VALID,23.6628,VALID,351,VALID,0.604688,
2010-08-26, 02:14:04,VALID,1004.82,VALID,0,INVALID,114.387,VALID,0,VALID,23.6434,VALID,351,VALID,0.559375,
2010-08-26, 02:15:04,VALID,1004.81,VALID,0,INVALID,114.387,VALID,0.100563,VALID,23.6434,VALID,351,VALID,0.552344,
2010-08-26, 02:16:04,VALID,1004.8,VALID,0,INVALID,114.311,VALID,0,VALID,23.6434,VALID,351,VALID,0.483203,
2010-08-26, 02:17:04,VALID,1004.78,VALID,0,INVALID,114.349,VALID,0,VALID,23.6628,VALID,351,VALID,0.530859,
2010-08-26, 02:18:04,VALID,1004.76,VALID,0,INVALID,114.273,VALID,0,VALID,23.6823,VALID,351,VALID,0.334766,
2010-08-26, 02:19:04,VALID,1004.73,VALID,0,INVALID,114.372,VALID,0,VALID,23.6628,VALID,351,VALID,0.302734,
2010-08-26, 02:20:04,VALID,1004.71,VALID,0,INVALID,114.372,VALID,0,VALID,23.6628,VALID,351,VALID,0.0359375,
2010-08-26, 02:21:04,VALID,1004.71,VALID,0,INVALID,114.357,VALID,0,VALID,23.6628,VALID,351,VALID,0,
2010-08-26, 02:22:04,VALID,1004.7,VALID,0,INVALID,114.372,VALID,0,VALID,23.6628,VALID,351,VALID,0,
2010-08-26, 02:23:04,VALID,1004.68,VALID,0,INVALID,114.38,VALID,0,VALID,23.661,VALID,351,VALID,0,
2010-08-26, 02:24:04,VALID,1004.69,VALID,0,INVALID,114.326,VALID,0.100563,VALID,23.7017,VALID,351,VALID,0.0207031,
2010-08-26, 02:25:04,VALID,1004.67,VALID,0,INVALID,114.441,VALID,0,VALID,23.6823,VALID,351,VALID,0.509375,
2010-08-26, 02:26:04,VALID,1004.65,VALID,0,INVALID,114.616,VALID,0,VALID,23.6416,VALID,352,VALID,0.671094,
2010-08-26, 02:27:04,VALID,1004.63,VALID,0,INVALID,114.677,VALID,0,VALID,23.6239,VALID,359,VALID,0.656641,
2010-08-26, 02:28:04,VALID,1004.63,VALID,0,INVALID,114.685,VALID,0,VALID,23.6239,VALID,359,VALID,0.562109,
2010-08-26, 02:29:04,VALID,1004.61,VALID,0,INVALID,114.654,VALID,0.100563,VALID,23.6452,VALID,359,VALID,0.767969,
2010-08-26, 02:30:04,VALID,1004.65,VALID,0,INVALID,114.7,VALID,0,VALID,23.6239,VALID,359,VALID,0.785156,
2010-08-26, 02:31:04,VALID,1004.61,VALID,0,INVALID,114.738,VALID,0,VALID,23.6044,VALID,359,VALID,0.85625,
2010-08-26, 02:32:04,VALID,1004.62,VALID,0,INVALID,114.853,VALID,0.100563,VALID,23.5637,VALID,358,VALID,0.522656,
2010-08-26, 02:33:04,VALID,1004.66,VALID,0,INVALID,114.731,VALID,0,VALID,23.6044,VALID,358,VALID,0.309766,
2010-08-26, 02:34:04,VALID,1004.65,VALID,0,INVALID,114.677,VALID,0,VALID,23.6044,VALID,331,VALID,0.41875,
2010-08-26, 02:35:04,VALID,1004.68,VALID,0,INVALID,114.548,VALID,0,VALID,23.6416,VALID,284,VALID,0.207031,
2010-08-26, 02:36:04,VALID,1004.68,VALID,0,INVALID,114.357,VALID,0.100563,VALID,23.7017,VALID,333,VALID,0.267188,
2010-08-26, 02:37:04,VALID,1004.67,VALID,0,INVALID,114.288,VALID,0,VALID,23.7407,VALID,333,VALID,0.0277344,
2010-08-26, 02:38:04,VALID,1004.66,VALID,0,INVALID,114.326,VALID,0,VALID,23.7601,VALID,335,VALID,0.166797,
2010-08-26, 02:39:04,VALID,1004.65,VALID,0,INVALID,114.204,VALID,0.100563,VALID,23.8185,VALID,349,VALID,0.672266,
2010-08-26, 02:40:04,VALID,1004.63,VALID,0,INVALID,114.189,VALID,0,VALID,23.838,VALID,349,VALID,0.727344,
2010-08-26, 02:41:04,VALID,1004.66,VALID,0,INVALID,114.265,VALID,0,VALID,23.8575,VALID,341,VALID,0.602734,
2010-08-26, 02:42:04,VALID,1004.65,VALID,0,INVALID,114.494,VALID,0,VALID,23.8185,VALID,343,VALID,0.619922,
2010-08-26, 02:43:04,VALID,1004.64,VALID,0,INVALID,114.761,VALID,0,VALID,23.7194,VALID,342,VALID,0.445313,
2010-08-26, 02:44:04,VALID,1004.62,VALID,0,INVALID,114.914,VALID,0,VALID,23.7212,VALID,342,VALID,0.583984,
2010-08-26, 02:45:04,VALID,1004.64,VALID,0,INVALID,115.036,VALID,0,VALID,23.7017,VALID,342,VALID,0.485547,
2010-08-26, 02:46:04,VALID,1004.63,VALID,0,INVALID,115.143,VALID,0,VALID,23.6823,VALID,342,VALID,0.489062,
2010-08-26, 02:47:04,VALID,1004.66,VALID,0,INVALID,115.211,VALID,0,VALID,23.6841,VALID,342,VALID,0.0832031,
2010-08-26, 02:48:04,VALID,1004.67,VALID,0,INVALID,115.318,VALID,0.100563,VALID,23.6823,VALID,342,VALID,0,
2010-08-26, 02:49:04,VALID,1004.67,VALID,0,INVALID,115.318,VALID,0,VALID,23.6823,VALID,342,VALID,0,
2010-08-26, 02:50:04,VALID,1004.71,VALID,0,INVALID,115.364,VALID,0.100563,VALID,23.723,VALID,342,VALID,0,
2010-08-26, 02:51:04,VALID,1004.74,VALID,0,INVALID,115.318,VALID,0,VALID,23.7017,VALID,342,VALID,0,
2010-08-26, 02:52:04,VALID,1004.71,VALID,0,INVALID,115.41,VALID,0,VALID,23.7017,VALID,342,VALID,0,
2010-08-26, 02:53:04,VALID,1004.72,VALID,0,INVALID,115.448,VALID,0,VALID,23.7212,VALID,342,VALID,0,
2010-08-26, 02:54:04,VALID,1004.72,VALID,0,INVALID,115.478,VALID,0.100563,VALID,23.7,VALID,342,VALID,0,
2010-08-26, 02:55:04,VALID,1004.72,VALID,0,INVALID,115.539,VALID,0,VALID,23.7212,VALID,342,VALID,0,
2010-08-26, 02:56:04,VALID,1004.71,VALID,0,INVALID,115.578,VALID,0,VALID,23.7212,VALID,342,VALID,0,
2010-08-26, 02:57:04,VALID,1004.69,VALID,0,INVALID,115.501,VALID,0,VALID,23.7619,VALID,342,VALID,0,
2010-08-26, 02:58:04,VALID,1004.69,VALID,0,INVALID,115.471,VALID,0,VALID,23.7601,VALID,344,VALID,0.00585938,
2010-08-26, 02:59:04,VALID,1004.71,VALID,0,INVALID,115.394,VALID,0,VALID,23.8185,VALID,351,VALID,0.578906,
2010-08-26, 03:00:04,VALID,1004.67,VALID,0,INVALID,115.349,VALID,0,VALID,23.8575,VALID,347,VALID,0.532031,
2010-08-26, 03:01:04,VALID,1004.68,VALID,0,INVALID,115.341,VALID,0,VALID,23.8556,VALID,1,VALID,0.598828,
2010-08-26, 03:02:04,VALID,1004.66,VALID,0,INVALID,115.379,VALID,0,VALID,23.9159,VALID,340,VALID,0.967578,
2010-08-26, 03:03:04,VALID,1004.67,VALID,0,INVALID,115.463,VALID,0,VALID,23.9548,VALID,352,VALID,0.690625,
2010-08-26, 03:04:04,VALID,1004.66,VALID,0,INVALID,115.578,VALID,0,VALID,23.9955,VALID,352,VALID,0.896875,
2010-08-26, 03:05:04,VALID,1004.66,VALID,0,INVALID,115.722,VALID,0,VALID,24.0132,VALID,344,VALID,0.612891,
2010-08-26, 03:06:04,VALID,1004.69,VALID,0,INVALID,115.982,VALID,0.100563,VALID,24.0132,VALID,348,VALID,0.483203,
2010-08-26, 03:07:04,VALID,1004.74,VALID,0,INVALID,116.272,VALID,0,VALID,23.9937,VALID,332,VALID,0.280469,
2010-08-26, 03:08:04,VALID,1004.73,VALID,0,INVALID,116.623,VALID,0,VALID,23.9548,VALID,337,VALID,0.43125,
2010-08-26, 03:09:04,VALID,1004.77,VALID,0,INVALID,116.913,VALID,0,VALID,23.9353,VALID,341,VALID,0.625,
2010-08-26, 03:10:04,VALID,1004.78,VALID,0,INVALID,117.218,VALID,0,VALID,23.9159,VALID,341,VALID,0.51875,
2010-08-26, 03:11:04,VALID,1004.79,VALID,0,INVALID,117.538,VALID,0,VALID,23.8787,VALID,341,VALID,0.439844,
2010-08-26, 03:12:04,VALID,1004.78,VALID,0,INVALID,117.622,VALID,0,VALID,23.8593,VALID,341,VALID,0.569922,
2010-08-26, 03:13:04,VALID,1004.77,VALID,0,INVALID,117.691,VALID,0,VALID,23.8575,VALID,341,VALID,0.486328,
2010-08-26, 03:14:04,VALID,1004.75,VALID,0,INVALID,117.737,VALID,0,VALID,23.8787,VALID,341,VALID,0.498437,
2010-08-26, 03:15:04,VALID,1004.75,VALID,0,INVALID,117.82,VALID,0,VALID,23.8575,VALID,341,VALID,0.444922,
2010-08-26, 03:16:04,VALID,1004.73,VALID,0,INVALID,117.767,VALID,0,VALID,23.8982,VALID,341,VALID,0.0941406,
2010-08-26, 03:17:04,VALID,1004.7,VALID,0,INVALID,117.782,VALID,0.100563,VALID,23.8964,VALID,341,VALID,0,
2010-08-26, 03:18:04,VALID,1004.7,VALID,0,INVALID,117.737,VALID,0,VALID,23.8946,VALID,341,VALID,0.471094,
2010-08-26, 03:19:04,VALID,1004.7,VALID,0,INVALID,117.538,VALID,0.100563,VALID,23.9742,VALID,4,VALID,0.50625,
2010-08-26, 03:20:04,VALID,1004.69,VALID,0,INVALID,117.775,VALID,0,VALID,23.9548,VALID,3,VALID,0.507031,
2010-08-26, 03:21:04,VALID,1004.67,VALID,0,INVALID,117.775,VALID,0.100563,VALID,23.9548,VALID,1,VALID,0.454297,
2010-08-26, 03:22:04,VALID,1004.66,VALID,0,INVALID,117.782,VALID,0,VALID,23.9761,VALID,1,VALID,0.510547,
2010-08-26, 03:23:04,VALID,1004.65,VALID,0,INVALID,117.706,VALID,0,VALID,23.953,VALID,1,VALID,0.506641,
2010-08-26, 03:24:04,VALID,1004.64,VALID,0,INVALID,117.645,VALID,0,VALID,24.0326,VALID,1,VALID,0.458984,
2010-08-26, 03:25:04,VALID,1004.68,VALID,0,INVALID,117.622,VALID,0,VALID,24.0539,VALID,360,VALID,0.467187,
2010-08-26, 03:26:04,VALID,1004.65,VALID,0,INVALID,117.592,VALID,0,VALID,24.0734,VALID,276,VALID,0.384766,
2010-08-26, 03:27:04,VALID,1004.67,VALID,0,INVALID,117.607,VALID,0,VALID,24.0929,VALID,331,VALID,0.132031,
2010-08-26, 03:28:04,VALID,1004.67,VALID,0,INVALID,117.729,VALID,0,VALID,24.1123,VALID,331,VALID,0,
2010-08-26, 03:29:04,VALID,1004.66,VALID,0,INVALID,117.813,VALID,0,VALID,24.0929,VALID,331,VALID,0.00585938,
2010-08-26, 03:30:04,VALID,1004.66,VALID,0,INVALID,117.859,VALID,0,VALID,24.1123,VALID,355,VALID,0.270703,
2010-08-26, 03:31:04,VALID,1004.69,VALID,0,INVALID,117.881,VALID,0,VALID,24.1123,VALID,355,VALID,0.000390625,
2010-08-26, 03:32:04,VALID,1004.69,VALID,0,INVALID,117.95,VALID,0,VALID,24.1123,VALID,355,VALID,0,
2010-08-26, 03:33:04,VALID,1004.72,VALID,0,INVALID,117.942,VALID,0,VALID,24.1318,VALID,355,VALID,0.273438,
2010-08-26, 03:34:04,VALID,1004.7,VALID,0,INVALID,117.866,VALID,0,VALID,24.1707,VALID,9,VALID,0.479297,
2010-08-26, 03:35:04,VALID,1004.68,VALID,0,INVALID,117.897,VALID,0,VALID,24.1902,VALID,342,VALID,0.107813,
2010-08-26, 03:36:04,VALID,1004.66,VALID,0,INVALID,117.942,VALID,0,VALID,24.2097,VALID,340,VALID,0.241797,
2010-08-26, 03:37:04,VALID,1004.63,VALID,0,INVALID,117.958,VALID,0,VALID,24.2291,VALID,352,VALID,1.04102,
2010-08-26, 03:38:04,VALID,1004.62,VALID,0,INVALID,118.034,VALID,0,VALID,24.2681,VALID,10,VALID,0.585547,
2010-08-26, 03:39:04,VALID,1004.6,VALID,0,INVALID,118.187,VALID,0,VALID,24.2875,VALID,6,VALID,0.714063,
2010-08-26, 03:40:04,VALID,1004.59,VALID,0,INVALID,118.339,VALID,0.100563,VALID,24.3052,VALID,355,VALID,0.849609,
2010-08-26, 03:41:04,VALID,1004.59,VALID,0,INVALID,118.644,VALID,0,VALID,24.3052,VALID,343,VALID,0.716016,
2010-08-26, 03:42:04,VALID,1004.57,VALID,0,INVALID,118.934,VALID,0.100563,VALID,24.2644,VALID,348,VALID,0.607422,
2010-08-26, 03:43:04,VALID,1004.55,VALID,0,INVALID,119.033,VALID,0.100563,VALID,24.3052,VALID,354,VALID,0.678906,